[[{"header":{"parameterUnit":"m.s-1","parameterCategory":1,"la1":30.2991,"la2":30.254,"lo1":-89.0895,"lo2":-89.0444,"dy":0.0017,"dx":0.0017,"nx":28,"ny":28,"refTime":"2024-03-18T03:00:00:Z","depth":0,"parameterNumber":2,"parameterNumberName":"U-component_of_WINDS"},"data":[0,0,0,0,0,0,0,0,0,0,0,0,0,0,0,0,0,0,0,0,0,0,0,0,0,0,0,0,0,0,0,0,0,0,0,0,0,0,0,0,0,0,0,0,0,0,0,0,0,0,0,0,0,0,0,0,0,0,2.6996,2.6996,0,2.7059,2.7059,2.706,2.7055,2.7054,2.7053,2.7052,2.7116,2.7118,2.7121,0,0,0,0,0,0,0,0,0,0,0,0,0,2.6871,2.6873,2.6995,2.6996,2.6997,2.7059,2.7059,2.706,2.7055,2.7054,2.7052,2.7051,2.7115,2.7118,2.7121,0,0,0,0,0,0,0,0,0,0,0,0,0,2.6929,2.6874,2.6995,2.7002,2.7003,2.7058,2.7059,2.706,2.7055,2.7054,2.7052,2.7051,2.7114,2.7118,2.7122,2.7175,0,0,2.7134,2.7135,0,0,0,0,0,0,0,0,2.6925,2.6933,2.7,2.7001,2.7003,2.7047,2.7039,2.7099,2.7055,2.7035,2.7052,2.705,2.7094,2.71,2.7115,2.7178,2.718,2.7134,2.7136,2.7138,2.7139,0,0,0,0,0,0,0,2.6921,2.693,2.702,2.7001,2.7003,2.7002,2.7008,2.705,2.7072,2.7037,2.7037,2.7044,2.7095,2.7111,2.7116,2.7181,2.7134,2.7137,2.714,2.7141,2.7293,2.7294,0,0,0,0,0,0,2.6916,2.6927,2.7018,2.7022,2.696,2.7005,2.7012,2.7034,2.7072,2.7076,2.7045,2.7044,2.7105,2.7112,2.7118,2.7183,2.7138,2.7142,2.7144,2.7291,2.7293,2.7295,0,0,0,0,0,0,2.6913,2.6924,2.7016,2.6975,2.6986,2.7009,2.7033,2.7036,2.7053,2.7078,2.7082,2.7058,2.7104,2.7113,2.7161,2.7186,2.7143,2.7147,2.7289,2.7292,2.7294,2.7314,0,0,0,0,0,0,2.691,2.6923,2.6943,2.6975,2.6989,2.7057,2.7035,2.7039,2.7059,2.7058,2.7091,2.7095,2.7104,2.7155,2.7165,2.719,2.715,2.7287,2.729,2.7293,2.7311,2.7317,2.7321,0,0,0,0,0,2.6905,2.6946,2.6944,2.6955,2.7014,2.7059,2.7066,2.7076,2.7061,2.7082,2.7099,2.7094,2.7182,2.716,2.7171,2.7198,2.7285,2.7289,2.7293,2.7309,2.7315,2.7321,0,0,0,0,0,0,2.6915,2.695,2.6949,2.7001,2.7027,2.7058,2.7084,2.7083,2.7113,2.711,2.7121,2.7128,2.7177,2.7192,2.7168,2.7252,2.7232,2.7238,2.724,2.7247,2.7252,2.7247,2.7153,0,0,0,0,0,2.6924,2.6957,2.6986,2.7029,2.7042,2.7061,2.7081,2.7086,2.7113,2.7124,2.7144,2.7171,2.7205,2.7227,2.7259,2.7314,2.7321,2.7338,2.7343,2.7347,2.7352,2.7383,2.7391,2.7307,2.7307,2.7307,0,0,2.6941,2.6964,2.6984,2.7032,2.7052,2.7087,2.707,2.7107,2.7133,2.713,2.7176,2.7192,2.7223,2.7275,2.7299,2.7289,2.7377,2.7352,2.7355,2.7358,2.7388,2.7395,2.7402,2.731,2.7309,2.7309,0,0,2.699,2.7011,2.705,2.7072,2.7104,2.7116,2.7126,2.7157,2.7168,2.7215,2.7214,2.7245,2.7303,2.7325,2.7344,2.7404,2.7401,2.7415,2.7441,2.7472,2.7478,2.7484,2.7506,2.7514,2.742,2.742,2.742,0,2.7008,2.7059,2.707,2.7108,2.7129,2.7128,2.7168,2.7189,2.723,2.7244,2.7233,2.7307,2.7328,2.7385,2.74,2.7415,2.7427,2.741,2.7476,2.7483,2.7488,2.7509,2.7517,2.7421,2.7421,2.7421,2.7421,0,2.708,2.7116,2.7143,2.7184,2.7208,2.7246,2.7263,2.7287,2.729,2.7304,2.7353,2.7378,2.7416,2.7431,2.7434,2.7489,2.7483,2.7474,2.7454,2.7497,2.7517,2.7525,2.7423,2.7423,2.7422,2.7422,0,0,2.7135,2.7182,2.7192,2.7211,2.7247,2.7275,2.7315,2.7352,2.7373,2.7402,2.7435,2.7485,2.7478,2.7499,2.7506,2.7532,2.7579,2.7521,2.7522,2.7531,2.7642,2.7648,2.7657,2.7578,2.7579,2.7581,2.7639,0,2.7188,2.7257,2.7268,2.7329,2.7363,2.7364,2.7399,2.7425,2.744,2.7471,2.7487,2.7523,2.751,2.7523,2.755,2.7568,2.7602,2.7564,2.7609,2.761,2.7601,2.7667,2.7673,2.7727,2.7647,2.7649,2.765,0,2.7258,2.729,2.7354,2.7387,2.7402,2.7432,2.7469,2.7498,2.7529,2.7538,2.7563,2.7567,2.7608,2.7587,2.7645,2.7619,2.7638,2.765,2.7653,2.7656,2.7632,2.7673,2.7745,2.7753,2.7662,2.7661,2.766,0,2.7292,2.7351,2.7397,2.7413,2.7453,2.7475,2.7492,2.7522,2.7544,2.7576,2.7591,2.7627,2.7647,2.7675,2.7689,2.7672,2.7746,2.7726,2.7755,2.7755,2.7769,2.7768,2.7845,2.7783,2.7783,2.7783,2.7782,0,2.735,2.7389,2.7413,2.7441,2.7486,2.7499,2.7543,2.756,2.7587,2.7619,2.7623,2.7653,2.767,2.7703,2.7714,2.7761,2.7769,2.7778,2.778,2.7777,2.7776,2.779,2.7786,2.7785,2.7784,2.7784,2.7783,0,2.7395,2.7412,2.7463,2.7497,2.7507,2.7538,2.7568,2.7596,2.7611,2.7652,2.7662,2.7686,2.7725,2.7743,2.7791,2.7799,2.7851,2.7851,2.7841,2.7842,2.787,2.7867,2.7957,2.797,2.79,2.7901,2.7901,0,2.743,2.746,2.7498,2.752,2.7538,2.7574,2.7597,2.7612,2.7636,2.7674,2.7698,2.7738,2.777,2.7833,2.7854,2.7892,2.7892,2.7922,2.7898,2.7894,2.7893,2.789,2.7894,2.7926,2.7926,2.7927,2.7927,0,2.749,2.7498,2.7531,2.7568,2.7596,2.7626,2.7655,2.7673,2.7693,2.772,2.776,2.7786,2.7836,2.7875,2.7914,2.7933,2.7934,2.7935,2.7944,2.794,2.7933,2.7937,2.7852,2.7932,2.7932,2.7932,2.7931,2.7931,2.7531,2.7558,2.759,2.7627,2.7651,2.7679,2.7707,2.7727,2.7761,2.7802,2.781,2.7853,2.7884,2.7937,2.7957,2.7992,2.7985,2.7997,2.8,2.8003,2.8005,2.7928,2.7999,2.7999,2.7999,2.7999,2.7999,0,2.7591,2.7612,2.7647,2.7688,2.7718,2.7717,2.775,2.7775,2.7813,2.7842,2.7874,2.7921,2.796,2.7986,2.8025,2.8048,2.805,2.8058,2.8056,2.806,2.8009,2.7997,2.8056,2.8056,2.8056,2.8056,2.8056,2.8056,2.7626,2.7673,2.7685,2.7744,2.7764,2.7807,2.7826,2.7852,2.7875,2.7928,2.796,2.7977,2.8005,2.8047,2.8083,2.809,2.8104,2.8113,2.8119,2.807,2.8064,2.8058,2.8047,2.8116,2.8116,2.8168,2.8168,2.8168]},{"header":{"parameterUnit":"m.s-1","parameterCategory":1,"la1":30.2991,"la2":30.254,"lo1":-89.0895,"lo2":-89.0444,"dy":0.0017,"dx":0.0017,"nx":28,"ny":28,"refTime":"2024-03-18T03:00:00:Z","depth":0,"parameterNumber":3,"parameterNumberName":"V-component_of_WINDS"},"data":[0,0,0,0,0,0,0,0,0,0,0,0,0,0,0,0,0,0,0,0,0,0,0,0,0,0,0,0,0,0,0,0,0,0,0,0,0,0,0,0,0,0,0,0,0,0,0,0,0,0,0,0,0,0,0,0,0,0,-8.0236,-8.0237,0,-8.0394,-8.0396,-8.0397,-8.0332,-8.0329,-8.0325,-8.0321,-8.0479,-8.0486,-8.0494,0,0,0,0,0,0,0,0,0,0,0,0,0,-7.9874,-7.9881,-8.0236,-8.0238,-8.024,-8.0394,-8.0396,-8.0398,-8.0333,-8.0328,-8.0324,-8.032,-8.0476,-8.0485,-8.0495,0,0,0,0,0,0,0,0,0,0,0,0,0,-8.0031,-7.9883,-8.0235,-8.0226,-8.0227,-8.0393,-8.0396,-8.0398,-8.0334,-8.0328,-8.0323,-8.0318,-8.0473,-8.0484,-8.0496,-8.0679,0,0,-8.0531,-8.0536,0,0,0,0,0,0,0,0,-8.0023,-8.0045,-8.0225,-8.0227,-8.0228,-8.0338,-8.0326,-8.0492,-8.0335,-8.0293,-8.0321,-8.0315,-8.0436,-8.045,-8.0492,-8.0687,-8.0693,-8.0532,-8.0539,-8.0544,-8.0547,0,0,0,0,0,0,0,-8.0012,-8.0038,-8.0298,-8.0228,-8.023,-8.0213,-8.0229,-8.0357,-8.0394,-8.0296,-8.0292,-8.0312,-8.0436,-8.0481,-8.0495,-8.0696,-8.0532,-8.0542,-8.0549,-8.0554,-8.1049,-8.1055,0,0,0,0,0,0,-8.0001,-8.0029,-8.0293,-8.0303,-8.0109,-8.0224,-8.0242,-8.0308,-8.0392,-8.04,-8.0317,-8.0308,-8.0464,-8.0482,-8.0501,-8.0722,-8.0544,-8.0555,-8.0561,-8.1043,-8.1051,-8.1057,0,0,0,0,0,0,-7.9994,-8.0025,-8.0287,-8.0165,-8.0197,-8.0236,-8.0311,-8.0314,-8.036,-8.0408,-8.0414,-8.0357,-8.0461,-8.0484,-8.0636,-8.0726,-8.056,-8.057,-8.1036,-8.1045,-8.1054,-8.1165,0,0,0,0,0,0,-7.9983,-8.0023,-8.0094,-8.0167,-8.0204,-8.0421,-8.0317,-8.0321,-8.038,-8.0371,-8.0447,-8.0454,-8.0458,-8.0619,-8.0647,-8.0739,-8.0579,-8.1028,-8.104,-8.1051,-8.1154,-8.1177,-8.1197,0,0,0,0,0,-7.9971,-8.0118,-8.0098,-8.013,-8.0293,-8.0426,-8.0447,-8.045,-8.0388,-8.0459,-8.049,-8.0452,-8.0712,-8.0635,-8.0666,-8.0763,-8.1022,-8.1036,-8.105,-8.1144,-8.1173,-8.1197,0,0,0,0,0,0,-8.0053,-8.0127,-8.0106,-8.0281,-8.0348,-8.0415,-8.0505,-8.048,-8.0565,-8.0552,-8.0551,-8.0568,-8.0725,-8.0759,-8.0672,-8.0945,-8.0857,-8.0878,-8.0918,-8.0946,-8.0967,-8.0956,-8.0589,0,0,0,0,0,-8.0092,-8.0195,-8.0253,-8.0402,-8.0437,-8.0466,-8.0523,-8.052,-8.0589,-8.0616,-8.0658,-8.0725,-8.0821,-8.0885,-8.0977,-8.1158,-8.1173,-8.124,-8.1262,-8.1279,-8.1298,-8.1396,-8.1427,-8.1104,-8.1103,-8.1103,0,0,-8.0172,-8.0226,-8.029,-8.042,-8.0472,-8.0577,-8.049,-8.0605,-8.0683,-8.0633,-8.0779,-8.0813,-8.0887,-8.1054,-8.113,-8.1087,-8.139,-8.1297,-8.1311,-8.132,-8.1414,-8.1444,-8.1472,-8.1113,-8.1111,-8.111,0,0,-8.0374,-8.0424,-8.0555,-8.0608,-8.0688,-8.0706,-8.0737,-8.0809,-8.0829,-8.0976,-8.0941,-8.1033,-8.12,-8.1254,-8.1304,-8.1527,-8.1495,-8.1557,-8.1671,-8.1767,-8.1793,-8.1815,-8.1895,-8.1924,-8.1575,-8.1575,-8.1575,0,-8.0463,-8.0623,-8.0624,-8.0743,-8.0801,-8.0762,-8.0894,-8.0945,-8.105,-8.1091,-8.1041,-8.1251,-8.1298,-8.1478,-8.1532,-8.1574,-8.1609,-8.1548,-8.1789,-8.1812,-8.1833,-8.1909,-8.1939,-8.1582,-8.1581,-8.158,-8.158,0,-8.073,-8.084,-8.0936,-8.104,-8.1109,-8.1233,-8.1253,-8.1322,-8.1313,-8.1335,-8.1486,-8.1541,-8.1644,-8.1686,-8.1677,-8.1865,-8.1836,-8.1789,-8.17,-8.1871,-8.1942,-8.1972,-8.1592,-8.1589,-8.1587,-8.1586,0,0,-8.0987,-8.1091,-8.1126,-8.1174,-8.1259,-8.1344,-8.1466,-8.1568,-8.1628,-8.1701,-8.1804,-8.1946,-8.1903,-8.1959,-8.1956,-8.2041,-8.2215,-8.1983,-8.1984,-8.2024,-8.2425,-8.2461,-8.2495,-8.2194,-8.2199,-8.2204,-8.2419,0,-8.1195,-8.1412,-8.1417,-8.1615,-8.1718,-8.1682,-8.1789,-8.1852,-8.1877,-8.1967,-8.1993,-8.2094,-8.2029,-8.2063,-8.2145,-8.2176,-8.2295,-8.216,-8.2288,-8.2293,-8.2271,-8.2532,-8.2571,-8.2772,-8.2447,-8.2452,-8.2455,0,-8.1467,-8.1552,-8.1761,-8.1832,-8.1875,-8.1971,-8.2065,-8.2152,-8.2222,-8.2234,-8.2298,-8.2283,-8.2406,-8.2314,-8.2485,-8.2393,-8.2445,-8.2468,-8.2476,-8.2488,-8.2385,-8.2552,-8.2836,-8.2866,-8.2499,-8.2496,-8.2493,0,-8.1635,-8.18,-8.1947,-8.1988,-8.2075,-8.2144,-8.2182,-8.2248,-8.2309,-8.2391,-8.243,-8.2525,-8.2577,-8.265,-8.266,-8.2591,-8.2831,-8.2739,-8.2844,-8.2844,-8.2896,-8.2893,-8.3193,-8.2929,-8.2929,-8.2928,-8.2928,0,-8.1867,-8.1997,-8.2024,-8.2114,-8.2258,-8.2262,-8.2404,-8.2437,-8.2495,-8.2591,-8.2565,-8.2655,-8.2662,-8.2754,-8.2763,-8.2903,-8.2926,-8.2938,-8.2939,-8.2941,-8.294,-8.2976,-8.2962,-8.2936,-8.2934,-8.2933,-8.2932,0,-8.2079,-8.2103,-8.226,-8.233,-8.235,-8.2453,-8.2512,-8.2598,-8.262,-8.2741,-8.277,-8.2804,-8.2911,-8.2929,-8.3054,-8.3059,-8.3227,-8.3213,-8.3204,-8.3203,-8.3306,-8.3297,-8.364,-8.3685,-8.3392,-8.3395,-8.3397,0,-8.2226,-8.2325,-8.2406,-8.2469,-8.2512,-8.2614,-8.2676,-8.2684,-8.275,-8.2839,-8.2914,-8.3019,-8.3103,-8.3275,-8.3311,-8.3406,-8.3394,-8.3508,-8.3408,-8.3408,-8.3397,-8.3391,-8.3401,-8.3527,-8.3531,-8.3533,-8.3535,0,-8.2485,-8.2492,-8.2585,-8.2682,-8.2758,-8.2835,-8.2907,-8.2959,-8.2976,-8.3052,-8.3162,-8.3228,-8.3356,-8.346,-8.3556,-8.3594,-8.3568,-8.3567,-8.3596,-8.3599,-8.359,-8.3597,-8.3257,-8.3559,-8.3556,-8.3555,-8.3553,-8.3552,-8.267,-8.2756,-8.2827,-8.2931,-8.2987,-8.3055,-8.314,-8.3173,-8.3266,-8.3372,-8.3371,-8.3492,-8.3559,-8.3685,-8.373,-8.3823,-8.3786,-8.3829,-8.3839,-8.385,-8.386,-8.3575,-8.384,-8.384,-8.3839,-8.3839,-8.3838,0,-8.2928,-8.2972,-8.3068,-8.3171,-8.3252,-8.3222,-8.3301,-8.3371,-8.3478,-8.3544,-8.3628,-8.3755,-8.3856,-8.39,-8.3999,-8.4065,-8.4056,-8.4091,-8.4086,-8.4096,-8.3888,-8.3853,-8.4097,-8.4097,-8.4097,-8.4097,-8.4097,-8.4097,-8.3072,-8.3217,-8.3233,-8.3405,-8.3448,-8.3568,-8.3615,-8.3677,-8.3731,-8.3874,-8.3959,-8.3987,-8.4044,-8.4147,-8.4238,-8.4248,-8.4286,-8.4327,-8.4332,-8.4137,-8.411,-8.4085,-8.4053,-8.4335,-8.4335,-8.4532,-8.4534,-8.4535]}]]